Torna al catalogo

METEOR 1-25

AttivoMeteoPO
NORAD 8845·PAYLOAD·🇷🇺 Russia

Lanciato May 15, 1976 da Plesetsk Cosmodrome

Loading…

Prossimi Passaggi (prossime 24 ore)

TLE

AggiornatoSource: Space-Track

Epoca: Sep 14, 2026, 22:07 UTC

1 08845U 76043A   26257.92215040 -.00000083  00000-0 -52337-4 0  9997
2 08845  81.2610 228.3423 0040303  38.1653 322.2360 14.11845622737587

Traccia METEOR 1-25 in tempo reale con AllMySat

Download on the App Store